[[{"header":{"parameterUnit":"m.s-1","parameterCategory":1,"la1":30.2991,"la2":30.254,"lo1":-89.0895,"lo2":-89.0444,"dx":0.0017,"dy":0.0017,"nx":28,"ny":28,"refTime":"2022-11-08T09:00:00:Z","depth":0,"parameterNumber":2,"parameterNumberName":"U-component_of_WINDS"},"data":[0,0,0,0,0,0,0,0,0,0,0,0,0,0,0,0,0,0,0,0,0,0,0,0,0,0,0,0,0,0,0,0,0,0,0,0,0,0,0,0,0,0,0,0,0,0,0,0,0,0,0,0,0,0,0,0,0,0,-6.1784,-6.1785,0,-6.1916,-6.1918,-6.1919,-6.1773,-6.1767,-6.1762,-6.1756,-6.1894,-6.1903,-6.1911,0,0,0,0,0,0,0,0,0,0,0,0,0,-6.1404,-6.1412,-6.1783,-6.1785,-6.1787,-6.1916,-6.1918,-6.1919,-6.1774,-6.1767,-6.176,-6.1754,-6.1891,-6.1901,-6.1912,0,0,0,0,0,0,0,0,0,0,0,0,0,-6.1556,-6.1415,-6.1783,-6.173,-6.1726,-6.1915,-6.1918,-6.192,-6.1775,-6.1767,-6.1758,-6.1751,-6.1888,-6.19,-6.1914,-6.2163,0,0,-6.1954,-6.196,0,0,0,0,0,0,0,0,-6.1548,-6.157,-6.1736,-6.1734,-6.173,-6.1819,-6.1834,-6.2001,-6.1777,-6.1757,-6.1756,-6.1746,-6.1876,-6.189,-6.1933,-6.2169,-6.2175,-6.1955,-6.1963,-6.1969,-6.1973,0,0,0,0,0,0,0,-6.1538,-6.1564,-6.1836,-6.1738,-6.1735,-6.1699,-6.1711,-6.1865,-6.1862,-6.1758,-6.1747,-6.1765,-6.1873,-6.192,-6.1935,-6.2177,-6.1955,-6.1967,-6.1975,-6.198,-6.2623,-6.2632,0,0,0,0,0,0,-6.1533,-6.1556,-6.1832,-6.184,-6.1616,-6.1713,-6.1726,-6.1799,-6.1859,-6.1861,-6.1772,-6.1758,-6.1902,-6.192,-6.1939,-6.2234,-6.1969,-6.1981,-6.1989,-6.2614,-6.2625,-6.2635,0,0,0,0,0,0,-6.1525,-6.1559,-6.1826,-6.1695,-6.1727,-6.1728,-6.1811,-6.1806,-6.1854,-6.187,-6.1869,-6.1822,-6.1896,-6.1921,-6.2108,-6.2237,-6.1987,-6.1999,-6.2603,-6.2617,-6.263,-6.2827,0,0,0,0,0,0,-6.1515,-6.1557,-6.1652,-6.1699,-6.1734,-6.1993,-6.1819,-6.1815,-6.1877,-6.1859,-6.1916,-6.1918,-6.1891,-6.2089,-6.2121,-6.2251,-6.201,-6.2592,-6.2609,-6.2625,-6.2809,-6.2846,-6.2877,0,0,0,0,0,-6.1502,-6.1703,-6.1658,-6.1692,-6.1853,-6.2001,-6.2021,-6.1986,-6.1888,-6.1983,-6.1993,-6.1916,-6.2218,-6.2109,-6.2144,-6.228,-6.2583,-6.2604,-6.2624,-6.2794,-6.2839,-6.2877,0,0,0,0,0,0,-6.1673,-6.1708,-6.1658,-6.188,-6.1939,-6.1976,-6.2095,-6.2035,-6.2123,-6.2104,-6.2057,-6.2071,-6.227,-6.2293,-6.2172,-6.2524,-6.2384,-6.2413,-6.2501,-6.2544,-6.2577,-6.2568,-6.2021,0,0,0,0,0,-6.1736,-6.1853,-6.1878,-6.2071,-6.2103,-6.2095,-6.2158,-6.2126,-6.2185,-6.2209,-6.2233,-6.2293,-6.2401,-6.2474,-6.2574,-6.2811,-6.2821,-6.2922,-6.2956,-6.2984,-6.3009,-6.3136,-6.318,-6.2702,-6.2702,-6.2701,0,0,-6.1869,-6.1902,-6.1979,-6.2106,-6.2148,-6.227,-6.2116,-6.2253,-6.2343,-6.223,-6.2407,-6.2427,-6.2492,-6.2705,-6.28,-6.2731,-6.3143,-6.301,-6.3032,-6.3043,-6.3161,-6.3207,-6.3247,-6.2716,-6.2713,-6.2711,0,0,-6.2172,-6.221,-6.2374,-6.2419,-6.2483,-6.2476,-6.2515,-6.2562,-6.257,-6.2748,-6.2665,-6.2771,-6.2959,-6.3008,-6.3057,-6.3378,-6.331,-6.3412,-6.3591,-6.3714,-6.3752,-6.3785,-6.3899,-6.3941,-6.3437,-6.3438,-6.3438,0,-6.2329,-6.251,-6.2467,-6.2609,-6.2667,-6.2568,-6.2735,-6.278,-6.2875,-6.2917,-6.2838,-6.307,-6.3106,-6.3329,-6.3407,-6.345,-6.3494,-6.3406,-6.375,-6.3783,-6.3813,-6.3921,-6.3965,-6.3449,-6.3448,-6.3447,-6.3446,0,-6.2699,-6.2826,-6.2951,-6.3043,-6.3115,-6.3269,-6.3249,-6.3328,-6.3289,-6.329,-6.3471,-6.3511,-6.3617,-6.3668,-6.3632,-6.3886,-6.384,-6.3757,-6.3616,-6.3871,-6.3972,-6.4014,-6.3467,-6.3462,-6.3459,-6.3456,0,0,-6.3115,-6.3181,-6.3228,-6.3268,-6.3331,-6.3428,-6.3577,-6.368,-6.3748,-6.3816,-6.3939,-6.4099,-6.4021,-6.4078,-6.4046,-6.4154,-6.4405,-6.4057,-6.4057,-6.412,-6.4687,-6.475,-6.4799,-6.436,-6.4367,-6.4374,-6.4681,0,-6.342,-6.3677,-6.3642,-6.389,-6.4006,-6.3913,-6.4042,-6.4095,-6.41,-6.4199,-6.4203,-6.4318,-6.4207,-6.424,-6.4343,-6.4353,-6.4518,-6.433,-6.4475,-6.448,-6.4462,-6.4851,-6.4919,-6.5208,-6.4721,-6.4727,-6.4732,0,-6.381,-6.3891,-6.415,-6.4194,-6.4241,-6.4358,-6.4449,-6.4545,-6.4603,-6.4598,-6.4661,-6.4609,-6.4757,-6.4613,-6.4817,-6.469,-6.4746,-6.476,-6.477,-6.4783,-6.4622,-6.4875,-6.5299,-6.5342,-6.4794,-6.4789,-6.4785,0,-6.4088,-6.4262,-6.4439,-6.4476,-6.4532,-6.4616,-6.4643,-6.4692,-6.4756,-6.4835,-6.4876,-6.4972,-6.5025,-6.5101,-6.5077,-6.4974,-6.5286,-6.514,-6.5286,-6.5288,-6.5357,-6.5353,-6.5797,-6.5394,-6.5393,-6.5392,-6.5391,0,-6.4432,-6.4594,-6.4564,-6.4673,-6.4852,-6.4809,-6.4987,-6.5003,-6.5047,-6.5157,-6.5083,-6.5188,-6.5149,-6.5252,-6.5234,-6.5405,-6.543,-6.543,-6.5424,-6.5438,-6.5438,-6.5474,-6.5454,-6.5404,-6.5401,-6.5399,-6.5397,0,-6.4773,-6.4759,-6.4946,-6.4983,-6.4996,-6.5126,-6.5157,-6.5259,-6.5257,-6.5397,-6.5428,-6.5425,-6.5542,-6.5525,-6.5655,-6.5643,-6.5857,-6.5826,-6.5838,-6.583,-6.5978,-6.5965,-6.6461,-6.6524,-6.6081,-6.6085,-6.6088,0,-6.4994,-6.5116,-6.5165,-6.5233,-6.5266,-6.5377,-6.5442,-6.5404,-6.5474,-6.5548,-6.5642,-6.5752,-6.5838,-6.6029,-6.6039,-6.6138,-6.6109,-6.6276,-6.6123,-6.6133,-6.6111,-6.6105,-6.6116,-6.6306,-6.6311,-6.6316,-6.6319,0,-6.5387,-6.5374,-6.5469,-6.5563,-6.5641,-6.5713,-6.5777,-6.5838,-6.5806,-6.5888,-6.6007,-6.6074,-6.6206,-6.6316,-6.6409,-6.6436,-6.6374,-6.6367,-6.6406,-6.6421,-6.6423,-6.6424,-6.592,-6.6356,-6.6352,-6.6349,-6.6347,-6.6346,-6.5674,-6.5778,-6.5829,-6.5937,-6.5981,-6.6043,-6.6141,-6.615,-6.6248,-6.6352,-6.6324,-6.6459,-6.6511,-6.6629,-6.6667,-6.6771,-6.6709,-6.6766,-6.6781,-6.6796,-6.6813,-6.6406,-6.6788,-6.6786,-6.6785,-6.6785,-6.6784,0,-6.6063,-6.6091,-6.6191,-6.6283,-6.6368,-6.63,-6.6367,-6.6443,-6.6562,-6.6617,-6.6702,-6.6838,-6.6944,-6.6962,-6.7063,-6.7143,-6.7116,-6.717,-6.7164,-6.7172,-6.6862,-6.6818,-6.719,-6.719,-6.719,-6.719,-6.719,-6.719,-6.6276,-6.6448,-6.6441,-6.6634,-6.666,-6.679,-6.6834,-6.6891,-6.6933,-6.7088,-6.7176,-6.7186,-6.7226,-6.7328,-6.7423,-6.7425,-6.7466,-6.7531,-6.7523,-6.7234,-6.7193,-6.7155,-6.7113,-6.7541,-6.7541,-6.7823,-6.7826,-6.7828]},{"header":{"parameterUnit":"m.s-1","parameterCategory":1,"la1":30.2991,"la2":30.254,"lo1":-89.0895,"lo2":-89.0444,"dx":0.0017,"dy":0.0017,"nx":28,"ny":28,"refTime":"2022-11-08T09:00:00:Z","depth":0,"parameterNumber":3,"parameterNumberName":"V-component_of_WINDS"},"data":[0,0,0,0,0,0,0,0,0,0,0,0,0,0,0,0,0,0,0,0,0,0,0,0,0,0,0,0,0,0,0,0,0,0,0,0,0,0,0,0,0,0,0,0,0,0,0,0,0,0,0,0,0,0,0,0,0,0,-1.9901,-1.9902,0,-2.0019,-2.002,-2.0022,-2.0034,-2.0033,-2.0032,-2.0031,-2.0152,-2.0156,-2.0161,0,0,0,0,0,0,0,0,0,0,0,0,0,-1.9686,-1.969,-1.9901,-1.9902,-1.9904,-2.0019,-2.002,-2.0022,-2.0035,-2.0033,-2.0032,-2.003,-2.0151,-2.0156,-2.0161,0,0,0,0,0,0,0,0,0,0,0,0,0,-1.9789,-1.9691,-1.9901,-1.9924,-1.9927,-2.0018,-2.002,-2.0022,-2.0035,-2.0033,-2.0031,-2.003,-2.0149,-2.0155,-2.0162,-2.0238,0,0,-2.0182,-2.0184,0,0,0,0,0,0,0,0,-1.9783,-1.9797,-1.9919,-1.9923,-1.9926,-2.001,-1.9989,-2.0095,-2.0035,-1.9994,-2.0031,-2.0029,-2.0106,-2.0116,-2.0142,-2.0243,-2.0249,-2.0182,-2.0186,-2.0189,-2.0191,0,0,0,0,0,0,0,-1.9776,-1.9792,-1.9948,-1.9921,-1.9925,-1.9928,-1.9941,-2.0009,-2.0059,-1.9997,-1.9999,-2.0012,-2.0108,-2.0136,-2.0145,-2.025,-2.0182,-2.0188,-2.0192,-2.0194,-2.0419,-2.0421,0,0,0,0,0,0,-1.9765,-1.9786,-1.9944,-1.9951,-1.9849,-1.9934,-1.9948,-1.9985,-2.0058,-2.0067,-2.0014,-2.0013,-2.0126,-2.0138,-2.0149,-2.0243,-2.0189,-2.0195,-2.0199,-2.0417,-2.042,-2.0422,0,0,0,0,0,0,-1.976,-1.9779,-1.9939,-1.9869,-1.989,-1.9939,-1.9981,-1.9988,-2.0016,-2.007,-2.0079,-2.0033,-2.0125,-2.014,-2.0216,-2.0248,-2.0198,-2.0204,-2.0415,-2.0418,-2.0421,-2.0432,0,0,0,0,0,0,-1.9754,-1.9777,-1.9807,-1.987,-1.9893,-2.0003,-1.9983,-1.9992,-2.0028,-2.0027,-2.0091,-2.01,-2.0125,-2.0206,-2.0222,-2.0256,-2.0209,-2.0412,-2.0416,-2.042,-2.0429,-2.0435,-2.044,0,0,0,0,0,-1.9746,-1.9805,-1.9808,-1.9827,-1.9932,-2.0005,-2.0019,-2.0046,-2.003,-2.006,-2.0095,-2.0098,-2.0241,-2.0213,-2.0232,-2.0268,-2.041,-2.0415,-2.042,-2.0426,-2.0433,-2.044,0,0,0,0,0,0,-1.9745,-1.9814,-1.9818,-1.9899,-1.9946,-2.0007,-2.0046,-2.0053,-2.0105,-2.0103,-2.0134,-2.0148,-2.0222,-2.0252,-2.022,-2.0345,-2.0324,-2.0333,-2.0323,-2.033,-2.0336,-2.0327,-2.0214,0,0,0,0,0,-1.9754,-1.9809,-1.9866,-1.9932,-1.9955,-1.9996,-2.003,-2.0046,-2.0096,-2.0116,-2.0156,-2.0205,-2.0261,-2.0297,-2.0352,-2.0433,-2.0447,-2.0466,-2.0472,-2.0476,-2.0484,-2.0528,-2.0538,-2.0437,-2.0437,-2.0437,0,0,-1.9774,-1.9818,-1.9851,-1.9933,-1.9971,-2.0026,-2.0013,-2.0072,-2.0114,-2.0125,-2.0199,-2.023,-2.0286,-2.0364,-2.0401,-2.0392,-2.0514,-2.0482,-2.0485,-2.0491,-2.0534,-2.0544,-2.0552,-2.044,-2.044,-2.0439,0,0,-1.9838,-1.9877,-1.9936,-1.9975,-2.0033,-2.006,-2.0074,-2.0134,-2.0155,-2.0229,-2.0238,-2.0288,-2.0383,-2.0423,-2.0456,-2.0533,-2.0538,-2.055,-2.058,-2.0623,-2.0631,-2.0638,-2.0666,-2.0676,-2.0557,-2.0557,-2.0557,0,-1.9855,-1.9939,-1.9966,-2.0025,-2.006,-2.0072,-2.0132,-2.0168,-2.0241,-2.0266,-2.0254,-2.0374,-2.0413,-2.0501,-2.0519,-2.0545,-2.0562,-2.0543,-2.0628,-2.0635,-2.0642,-2.0669,-2.0679,-2.0558,-2.0558,-2.0558,-2.0558,0,-1.9957,-2.0015,-2.0056,-2.0126,-2.0166,-2.0225,-2.026,-2.0297,-2.031,-2.0338,-2.0413,-2.0459,-2.0523,-2.0545,-2.0558,-2.0634,-2.0627,-2.0621,-2.0601,-2.0652,-2.0678,-2.0689,-2.056,-2.0559,-2.0559,-2.0559,0,0,-2.0026,-2.0108,-2.0123,-2.0154,-2.0219,-2.0264,-2.0323,-2.0385,-2.0417,-2.0466,-2.0516,-2.0596,-2.0591,-2.0628,-2.0646,-2.0684,-2.0742,-2.0673,-2.0675,-2.0685,-2.0829,-2.0833,-2.0845,-2.0745,-2.0747,-2.0749,-2.0824,0,-2.0097,-2.0203,-2.0228,-2.0319,-2.0373,-2.0384,-2.0436,-2.0481,-2.0508,-2.0557,-2.0587,-2.0644,-2.0633,-2.0655,-2.0693,-2.0727,-2.0771,-2.0722,-2.0793,-2.0795,-2.0779,-2.0858,-2.0863,-2.0932,-2.0835,-2.0836,-2.0838,0,-2.0196,-2.0247,-2.0343,-2.0399,-2.0423,-2.0469,-2.0527,-2.0574,-2.0625,-2.0642,-2.0683,-2.0696,-2.0758,-2.0734,-2.0819,-2.0785,-2.0815,-2.0836,-2.0839,-2.0848,-2.082,-2.0869,-2.0955,-2.0965,-2.0854,-2.0852,-2.0851,0,-2.0236,-2.0329,-2.0398,-2.0425,-2.0492,-2.0524,-2.0554,-2.0603,-2.0639,-2.069,-2.0713,-2.077,-2.0802,-2.0846,-2.0875,-2.0854,-2.0958,-2.0936,-2.0974,-2.0973,-2.0996,-2.0995,-2.1089,-2.1015,-2.1015,-2.1014,-2.1014,0,-2.0314,-2.0372,-2.0417,-2.046,-2.0525,-2.0553,-2.0617,-2.0647,-2.069,-2.0739,-2.0752,-2.0797,-2.0832,-2.0882,-2.0904,-2.0972,-2.0986,-2.1001,-2.1007,-2.1001,-2.0999,-2.1022,-2.1018,-2.1017,-2.1016,-2.1016,-2.1015,0,-2.037,-2.0403,-2.0479,-2.0537,-2.0552,-2.0598,-2.0647,-2.0689,-2.0716,-2.0777,-2.0793,-2.0836,-2.0895,-2.0928,-2.1002,-2.1017,-2.1093,-2.1096,-2.1076,-2.1078,-2.1115,-2.1111,-2.1227,-2.1244,-2.1158,-2.1159,-2.116,0,-2.0418,-2.0463,-2.0525,-2.0559,-2.0589,-2.0643,-2.0679,-2.0707,-2.0744,-2.0805,-2.0839,-2.0899,-2.0949,-2.1043,-2.1081,-2.1138,-2.1142,-2.1179,-2.1151,-2.1143,-2.1143,-2.1141,-2.1145,-2.1184,-2.1185,-2.1186,-2.1186,0,-2.05,-2.0513,-2.0565,-2.0622,-2.0664,-2.0711,-2.0756,-2.0783,-2.0819,-2.086,-2.092,-2.0959,-2.1034,-2.1094,-2.1154,-2.1184,-2.1192,-2.1194,-2.1206,-2.1201,-2.1188,-2.1196,-2.109,-2.1192,-2.1191,-2.1191,-2.1191,-2.119,-2.0554,-2.0595,-2.0644,-2.0701,-2.0738,-2.078,-2.0822,-2.0854,-2.0905,-2.0969,-2.0982,-2.1047,-2.1096,-2.1176,-2.1208,-2.1259,-2.1252,-2.1269,-2.1274,-2.1278,-2.1279,-2.1179,-2.127,-2.127,-2.127,-2.127,-2.1269,0,-2.0637,-2.0669,-2.0721,-2.0784,-2.0828,-2.083,-2.0881,-2.0918,-2.0974,-2.1019,-2.1067,-2.1137,-2.1194,-2.1236,-2.1294,-2.1327,-2.1332,-2.1341,-2.134,-2.1347,-2.1282,-2.1266,-2.1336,-2.1336,-2.1336,-2.1336,-2.1336,-2.1336,-2.0685,-2.0753,-2.0773,-2.0859,-2.0891,-2.0954,-2.0983,-2.1022,-2.1057,-2.1134,-2.1182,-2.1208,-2.1252,-2.1314,-2.1366,-2.1377,-2.1398,-2.1408,-2.1419,-2.1358,-2.1351,-2.1344,-2.133,-2.1412,-2.1412,-2.148,-2.148,-2.1481]}]]